TimeEDT,TemperatureF,Dew PointF,Humidity,Sea Level PressureIn,VisibilityMPH,Wind Direction,Wind SpeedMPH,Gust SpeedMPH,PrecipitationIn,Events,Conditions,WindDirDegrees,DateUTC
12:54 AM,50.0,30.9,48,30.34,10.0,Calm,Calm,-,N/A,,Clear,0,2013-05-04 04:54:00
1:54 AM,46.9,32.0,56,30.32,10.0,ESE,3.5,-,N/A,,Clear,110,2013-05-04 05:54:00
2:54 AM,46.0,32.0,58,30.30,10.0,East,5.8,-,N/A,,Clear,100,2013-05-04 06:54:00
3:54 AM,44.1,32.0,63,30.30,10.0,East,5.8,-,N/A,,Clear,100,2013-05-04 07:54:00
4:54 AM,43.0,33.1,68,30.30,10.0,ESE,5.8,-,N/A,,Clear,110,2013-05-04 08:54:00
5:54 AM,42.1,33.1,70,30.30,10.0,Calm,Calm,-,N/A,,Clear,0,2013-05-04 09:54:00
6:54 AM,43.0,33.1,68,30.32,10.0,East,4.6,-,N/A,,Clear,100,2013-05-04 10:54:00
7:54 AM,48.9,34.0,56,30.32,10.0,NE,4.6,-,N/A,,Clear,40,2013-05-04 11:54:00
8:54 AM,54.0,36.0,51,30.31,10.0,North,5.8,-,N/A,,Clear,360,2013-05-04 12:54:00
9:54 AM,60.1,37.0,42,30.29,10.0,NW,4.6,-,N/A,,Clear,310,2013-05-04 13:54:00
10:54 AM,64.9,39.0,39,30.28,10.0,Variable,3.5,-,N/A,,Clear,0,2013-05-04 14:54:00
11:54 AM,66.9,33.1,28,30.26,10.0,Variable,4.6,-,N/A,,Clear,0,2013-05-04 15:54:00
12:54 PM,70.0,34.0,27,30.24,10.0,Variable,6.9,-,N/A,,Clear,0,2013-05-04 16:54:00
1:54 PM,70.0,34.0,27,30.22,10.0,Variable,4.6,-,N/A,,Clear,0,2013-05-04 17:54:00
2:54 PM,73.0,35.1,25,30.20,10.0,Variable,6.9,-,N/A,,Clear,0,2013-05-04 18:54:00
3:54 PM,73.9,35.1,24,30.18,10.0,Variable,5.8,-,N/A,,Partly Cloudy,0,2013-05-04 19:54:00
4:54 PM,73.0,32.0,22,30.17,10.0,ESE,5.8,-,N/A,,Clear,120,2013-05-04 20:54:00
5:54 PM,73.0,30.0,20,30.16,10.0,Variable,4.6,-,N/A,,Clear,0,2013-05-04 21:54:00
6:54 PM,72.0,30.0,21,30.16,10.0,Calm,Calm,-,N/A,,Clear,0,2013-05-04 22:54:00
7:54 PM,69.1,30.0,23,30.16,10.0,SE,4.6,-,N/A,,Clear,130,2013-05-04 23:54:00
8:54 PM,64.0,37.0,37,30.18,10.0,Calm,Calm,-,N/A,,Clear,0,2013-05-05 00:54:00
9:54 PM,60.1,37.9,44,30.20,10.0,Calm,Calm,-,N/A,,Clear,0,2013-05-05 01:54:00
10:54 PM,57.0,37.9,49,30.21,10.0,Calm,Calm,-,N/A,,Clear,0,2013-05-05 02:54:00
11:54 PM,55.9,39.9,55,30.23,10.0,ESE,4.6,-,N/A,,Clear,120,2013-05-05 03:54:00